Theta_e
323 323 323 322 323 323 323 324 325 325 325 325 325 326 326 326 325 325 326 326 326 326 326 327 328 327 326 327 326 327 320 309 304 302 301 303 315 326 323 327 324 326 328 317 302 303 301 301 301 301 301 302 299 300 298 299 299 301 295 293 291 293 291 294 293 293 290 292 291 289 292 294 293 291 293 293 293 293 295 293 296 297 297 298 299 296 299 300
322 322 322 321 322 322 323 323 324 324 325 325 325 324 324 325 326 325 326 325 324 325 326 326 327 328 327 327 325 324 313 304 302 301 301 312 319 322 321 324 326 327 314 302 302 301 300 299 300 299 300 299 298 298 298 297 298 298 295 293 292 293 293 293 292 293 292 293 292 291 291 294 294 293 294 292 294 293 292 294 295 295 297 299 299 298 296 300
322 321 321 322 322 322 322 322 323 323 323 323 324 324 324 324 324 325 325 325 325 324 326 326 326 327 326 325 325 321 310 303 301 299 302 320 320 324 325 325 326 326 311 303 303 301 300 300 300 299 299 298 297 297 298 296 298 295 295 293 294 294 290 290 289 291 290 290 291 290 290 290 292 292 293 291 293 292 292 294 295 294 296 298 299 300 298 298
322 321 321 320 321 321 321 322 322 322 322 323 323 324 324 324 323 324 324 325 324 325 325 326 326 325 325 323 325 315 307 301 297 300 302 316 323 324 324 324 327 317 305 303 302 302 298 299 299 299 298 297 295 296 296 295 296 294 294 294 293 289 292 290 289 290 290 289 292 291 289 289 292 292 292 292 291 292 293 296 297 297 297 299 300 300 300 299
321 321 320 319 319 320 320 320 321 322 322 322 322 323 324 323 323 323 325 325 326 325 326 325 325 326 324 323 320 311 307 298 297 300 305 320 323 322 323 323 326 309 305 301 301 299 300 299 298 297 297 296 295 295 294 292 293 294 292 290 289 290 292 290 290 288 289 287 290 289 290 291 292 290 290 291 291 296 298 297 299 299 300 299 297 297 298 298
320 320 319 319 318 319 319 320 320 320 321 321 321 322 322 324 323 323 324 324 325 326 325 325 324 325 322 322 315 312 305 291 298 300 318 319 320 322 326 326 315 303 302 301 300 298 299 298 299 297 296 296 294 294 291 291 290 294 290 289 290 289 291 289 289 287 287 290 290 289 292 290 290 292 293 292 292 296 293 294 295 296 296 294 294 295 295 297
320 318 318 318 318 319 319 319 319 320 320 321 321 322 322 323 322 323 323 323 324 325 325 326 323 323 321 318 313 308 300 299 298 303 315 316 315 327 325 318 310 302 301 300 298 299 298 298 297 296 295 293 291 292 290 291 290 292 293 289 289 288 291 287 289 285 287 289 290 291 289 290 290 290 291 290 294 297 297 294 294 295 295 294 294 295 295 296
318 318 318 318 318 318 318 319 319 319 320 321 321 322 323 323 323 322 322 323 324 325 325 325 326 323 318 312 306 304 300 297 299 301 311 313 306 319 308 302 303 302 300 300 299 298 297 297 297 294 295 294 292 293 289 291 292 293 291 289 289 288 289 288 287 286 286 288 288 288 290 292 292 292 288 291 294 296 297 298 296 296 295 295 294 295 296 296
318 318 318 317 317 318 318 319 319 320 321 321 321 322 322 323 322 322 322 323 324 324 325 323 322 323 318 313 305 300 298 300 297 303 304 303 301 300 301 302 300 301 298 297 297 299 299 298 296 296 294 292 291 293 289 291 292 292 292 291 289 290 289 288 287 287 287 289 288 289 290 292 291 289 288 293 297 295 293 293 294 294 294 295 296 296 296 296
318 318 317 318 318 317 317 318 319 320 321 321 322 322 322 322 322 322 322 322 323 324 323 322 323 317 311 310 308 297 300 299 302 305 302 300 300 303 303 300 299 299 299 297 297 298 298 299 298 297 297 292 292 291 288 290 291 290 290 291 291 289 289 288 289 289 287 289 288 290 291 291 289 289 294 296 293 291 294 295 295 293 295 297 297 297 296 296
318 318 317 317 317 317 317 318 319 319 320 321 321 322 322 322 321 321 322 322 323 324 323 323 321 314 311 311 300 296 299 303 305 306 303 299 301 303 303 302 297 299 299 296 298 299 298 299 296 296 296 295 292 290 290 291 290 290 289 289 288 288 289 289 288 290 289 289 287 290 291 291 289 289 292 297 291 292 294 296 296 296 297 297 297 296 297 297
318 317 317 317 317 317 317 318 318 319 320 320 321 321 321 321 320 321 322 322 323 323 324 323 320 314 310 304 300 299 299 302 306 306 305 302 303 300 302 300 299 298 300 299 300 299 297 298 297 295 294 294 291 290 290 290 290 288 287 290 289 289 291 291 290 291 288 291 288 288 288 288 287 290 297 294 292 293 294 295 297 297 297 297 297 297 297 298
317 317 317 316 317 317 317 317 318 319 319 320 320 320 321 321 321 322 323 323 323 323 323 321 312 314 309 300 299 301 300 303 304 304 305 304 302 301 303 303 302 299 300 300 303 302 295 295 297 294 290 292 291 291 291 291 287 287 290 291 292 293 293 291 291 291 290 291 290 289 290 295 293 294 297 292 292 294 296 297 298 297 297 297 297 297 297 299
317 317 317 317 316 316 317 317 318 318 319 319 320 320 320 321 321 322 323 323 325 324 322 317 316 313 304 299 300 299 299 302 302 305 302 305 301 302 299 305 304 304 302 301 299 296 293 293 296 292 293 292 291 290 293 291 289 292 291 293 294 293 293 290 290 290 291 290 291 293 290 294 298 297 296 292 291 293 294 296 296 297 297 297 298 298 299 300
317 317 317 316 316 317 317 317 318 319 319 320 318 318 319 319 321 321 322 320 323 323 317 315 315 307 301 300 300 301 309 301 302 300 302 304 305 301 302 307 304 302 298 298 298 295 295 297 298 295 292 289 292 292 292 293 292 291 292 293 292 292 293 289 288 289 291 292 292 292 289 292 295 297 294 291 292 292 293 294 296 297 297 297 299 299 299 300
317 317 316 316 316 316 317 317 318 318 319 318 318 318 318 320 320 321 322 323 320 321 317 311 318 308 301 297 302 314 304 300 300 301 302 304 305 308 305 304 306 303 303 302 302 302 303 304 295 291 292 291 292 294 294 294 294 292 292 294 292 291 291 290 288 288 288 288 292 291 290 292 295 294 291 291 292 292 292 294 296 297 298 298 299 299 299 300
316 317 316 316 316 316 317 317 317 318 318 317 318 317 319 321 321 318 317 314 316 314 314 310 308 307 298 305 304 298 300 300 300 303 303 303 305 303 304 305 305 303 304 305 306 306 307 302 294 294 295 294 292 295 293 292 291 292 290 291 288 289 290 290 287 287 290 289 291 292 289 292 295 296 295 293 293 293 292 294 296 298 298 298 299 298 299 300
316 316 315 315 316 316 317 317 317 318 317 317 317 316 321 317 317 315 314 313 310 312 312 312 315 305 298 306 298 297 297 298 301 302 300 301 302 303 305 304 301 306 308 303 306 304 302 297 297 295 296 296 294 295 292 288 291 290 290 290 289 287 286 288 289 288 289 289 288 289 289 290 293 295 296 297 294 292 292 294 296 297 298 299 299 299 299 300
316 315 315 315 315 316 316 317 317 318 318 316 314 316 313 313 315 317 311 312 306 304 300 302 303 296 293 299 302 301 298 300 301 301 301 302 302 302 306 305 307 302 302 299 299 301 300 298 298 296 293 294 293 293 293 292 290 291 290 289 287 288 289 289 289 287 287 288 289 289 289 292 293 294 295 296 294 292 293 295 295 296 297 298 299 299 300 301
315 315 315 315 315 316 316 317 317 318 317 313 315 319 317 311 311 306 313 313 302 300 300 301 303 306 304 300 301 303 298 300 300 300 301 301 303 305 301 305 306 306 301 298 300 297 294 296 293 293 294 291 287 286 285 284 288 288 289 289 288 288 290 289 287 286 285 286 290 289 289 289 290 292 294 296 295 293 293 294 297 299 300 300 300 299 300 301
314 315 315 315 315 316 316 316 317 318 316 315 313 313 303 300 302 302 302 303 297 301 302 301 300 300 301 299 302 303 299 300 302 301 301 301 300 303 302 302 302 297 296 292 297 295 296 294 294 291 286 288 286 284 285 288 288 290 289 289 289 287 289 288 287 285 289 288 290 287 287 290 292 295 296 296 293 292 294 296 298 300 300 299 299 299 300 300
314 314 314 315 315 316 316 317 317 317 314 313 311 305 304 304 304 304 299 301 302 297 299 299 297 302 301 300 301 301 298 300 301 302 304 304 304 297 302 300 297 296 297 295 295 295 295 293 289 284 285 286 286 285 286 288 289 288 290 290 288 289 288 287 283 285 286 287 289 289 288 291 294 295 294 292 292 294 295 297 298 298 300 300 299 300 300 301
313 314 314 314 315 315 316 316 316 312 311 308 304 305 303 306 307 306 305 299 298 299 300 300 299 299 299 301 301 301 300 298 296 300 300 303 301 298 298 297 297 295 295 297 294 295 291 293 286 285 285 287 286 286 286 288 289 290 290 289 289 286 287 289 286 284 286 287 287 288 286 291 294 293 293 291 291 293 294 293 294 296 297 299 298 298 298 299
312 313 314 314 315 315 316 316 314 311 306 306 304 303 305 304 305 305 302 298 298 301 300 297 297 299 298 299 301 299 296 295 294 299 302 303 299 295 298 298 294 292 295 294 296 294 292 287 284 285 286 287 287 286 287 288 289 288 290 289 287 286 287 286 288 288 287 285 285 287 291 294 293 293 296 293 290 291 295 294 295 296 295 296 297 297 298 298
312 313 313 314 315 315 315 314 307 303 305 306 305 306 306 304 301 307 300 296 295 299 297 296 299 303 298 301 300 298 297 296 297 297 298 302 298 297 295 293 294 294 294 289 294 292 287 284 285 286 286 285 286 287 287 289 288 289 287 289 287 287 287 287 287 287 289 289 286 286 287 290 295 293 292 294 293 295 294 295 299 300 298 297 296 299 300 300
311 312 313 314 315 315 314 307 304 303 306 304 305 305 306 303 303 304 297 294 291 299 297 295 301 296 302 298 302 300 295 295 296 299 300 300 300 297 294 295 291 293 288 290 292 290 287 282 285 286 287 287 286 287 287 286 289 287 286 285 286 287 286 286 286 288 287 286 287 285 286 285 295 292 295 290 290 292 295 295 297 298 298 297 298 300 300 299
311 312 313 314 314 313 309 301 305 305 306 303 304 305 304 304 303 303 296 292 290 300 295 297 296 296 300 297 296 298 290 292 301 297 299 299 298 303 295 294 293 289 290 293 288 288 286 285 285 285 286 288 288 287 285 285 288 287 284 284 286 287 286 286 286 287 287 287 288 286 288 285 286 293 290 287 288 292 293 295 297 298 298 297 298 299 300 300
311 312 313 313 314 311 304 304 305 306 301 302 304 302 302 303 303 302 296 282 283 302 294 296 298 303 300 298 298 295 293 293 295 296 298 298 299 300 296 294 294 293 288 290 287 288 285 284 285 285 285 286 288 285 282 283 286 286 283 285 286 286 286 286 288 287 287 284 286 286 289 284 286 292 288 288 291 294 294 295 297 298 299 298 300 299 301 300
310 311 312 313 313 306 307 303 305 304 304 303 304 302 301 303 302 298 291 281 297 295 303 295 301 297 300 300 297 292 296 295 294 297 298 298 299 297 295 292 292 288 288 290 289 287 285 285 287 288 287 288 286 284 285 283 289 285 285 286 286 286 286 287 287 287 286 283 284 284 285 284 287 294 293 289 290 292 295 296 296 298 299 300 300 301 300 299
310 311 312 312 312 308 306 304 305 304 302 304 304 303 300 300 301 291 283 277 297 290 295 296 296 294 296 296 297 296 293 292 294 296 299 299 297 300 291 294 294 293 292 292 290 286 286 289 288 287 287 286 286 284 284 285 285 287 287 289 287 286 287 285 286 286 285 282 285 281 282 283 283 292 293 294 295 295 295 295 294 296 298 298 299 301 303 299
310 311 312 312 307 306 303 302 305 303 306 305 305 302 301 303 291 285 275 288 295 295 294 294 292 297 294 294 293 295 292 290 295 294 295 298 295 297 294 290 294 292 288 290 288 286 286 287 287 285 286 286 289 286 285 284 287 288 287 287 287 285 283 285 284 285 282 283 282 282 281 283 282 288 294 294 292 289 294 295 296 296 297 298 299 299 298 297
310 310 311 310 308 306 299 301 303 303 304 303 306 306 301 288 289 284 283 299 287 291 291 291 291 289 291 290 290 291 291 294 290 295 291 289 292 291 291 290 290 286 286 286 287 286 287 288 285 285 286 286 287 288 287 288 288 287 286 287 284 283 284 281 283 280 282 283 282 283 282 280 281 289 293 293 293 293 292 294 296 296 296 299 300 301 299 298
309 311 311 309 306 304 305 304 302 301 301 304 306 302 293 286 276 287 285 287 287 289 290 289 290 290 290 290 292 289 287 290 292 291 290 289 289 294 288 290 291 290 285 287 285 285 287 281 285 286 286 287 286 287 285 284 287 286 286 286 283 280 278 275 280 277 278 282 280 282 283 280 287 290 294 293 296 296 294 294 294 293 294 296 299 300 297 300
309 310 308 308 305 305 304 303 301 300 303 306 303 297 289 281 281 289 284 289 288 289 290 289 290 289 288 291 290 285 290 288 290 290 290 288 288 289 291 289 288 291 287 285 285 285 283 285 285 286 285 284 285 285 285 287 287 287 287 285 286 285 280 276 280 280 282 283 281 281 280 284 285 290 289 292 293 292 290 289 290 290 292 293 294 293 294 295
309 308 306 305 305 303 302 301 301 300 302 306 299 292 282 282 281 284 287 289 291 289 290 286 289 290 290 287 287 288 289 288 289 289 290 288 289 288 289 291 288 291 290 286 287 284 283 284 283 282 282 282 284 286 283 286 287 286 286 287 284 284 287 282 282 280 279 281 282 280 282 289 290 293 293 294 292 290 291 291 290 290 291 291 292 293 295 297
307 306 304 305 304 307 304 302 300 300 304 302 292 284 284 286 286 288 289 293 291 292 291 290 291 290 288 288 286 289 290 289 291 289 287 286 289 288 289 287 289 291 291 287 287 285 281 283 282 284 282 284 284 283 286 284 284 286 285 284 285 284 285 276 273 272 272 278 279 285 284 288 292 293 293 292 290 293 290 289 289 290 292 293 294 296 297 298
302 303 303 304 304 306 304 300 298 301 306 299 289 284 287 284 290 291 295 293 292 292 293 286 289 288 286 286 286 284 289 288 288 288 288 286 288 289 287 290 288 289 290 290 287 288 284 285 281 284 283 282 283 283 283 284 284 285 283 285 283 284 285 283 281 278 280 278 281 281 282 285 285 285 295 293 292 294 293 291 291 292 293 292 295 298 298 300
301 300 299 301 305 305 304 300 299 304 302 294 286 291 284 286 292 292 293 292 292 293 291 287 289 291 287 286 287 285 289 287 288 287 287 288 288 293 290 289 287 288 286 289 287 287 288 284 283 281 282 284 282 284 285 285 285 285 284 286 284 283 282 283 281 274 275 274 278 282 280 280 284 287 291 291 292 294 294 294 293 294 294 295 297 298 298 299
298 296 298 304 305 304 304 301 303 303 298 288 286 286 287 288 291 291 293 291 290 293 288 291 287 288 289 285 287 284 285 286 287 287 285 287 286 292 291 291 288 287 285 288 288 287 288 283 284 279 283 284 283 285 284 284 285 284 284 285 283 283 285 282 283 283 282 278 273 279 280 283 289 288 291 292 293 294 293 293 294 295 297 297 297 298 298 299
297 294 296 305 303 305 303 302 304 298 293 287 286 286 288 286 294 291 289 292 292 290 290 290 287 287 287 287 286 287 285 286 286 287 285 288 287 296 291 291 290 287 286 286 286 288 286 285 281 283 282 282 283 284 284 287 284 283 284 284 283 284 285 285 282 282 282 279 278 278 278 284 291 292 291 293 294 295 294 294 296 296 297 296 296 297 298 298
295 291 298 303 303 304 306 303 296 290 288 283 283 283 283 289 292 293 290 291 293 293 290 290 290 287 287 286 287 286 286 284 284 286 285 287 287 287 288 289 289 288 288 288 289 287 286 284 282 284 283 282 285 282 282 281 283 286 286 285 286 283 282 279 280 279 279 280 277 276 278 286 292 288 292 293 294 295 293 292 294 295 294 295 295 296 296 297
292 286 292 303 303 303 301 293 285 284 287 285 288 285 288 294 290 290 291 290 291 292 293 291 289 289 286 287 290 286 286 285 284 285 286 286 289 289 287 280 286 286 287 286 288 288 287 285 283 281 284 286 283 280 280 280 278 281 283 285 285 287 286 284 278 280 278 279 277 280 275 281 293 289 292 293 293 290 288 288 290 292 294 294 294 294 295 296
291 288 298 304 301 300 298 287 287 286 285 288 287 287 287 289 289 290 291 292 291 293 288 289 291 289 291 289 287 286 286 287 285 286 287 287 287 287 285 284 285 286 288 285 285 283 287 284 282 283 286 281 279 281 279 279 280 281 280 280 282 284 285 285 285 284 283 280 278 279 276 282 292 289 289 288 287 287 287 287 290 291 292 293 294 294 293 294
291 291 295 303 299 301 292 284 286 286 285 285 286 288 289 289 290 289 290 291 290 291 290 288 290 291 290 290 288 286 290 284 287 287 287 284 288 282 282 285 285 287 289 288 289 289 284 286 283 281 281 284 283 281 282 278 281 283 285 284 283 284 282 280 279 280 281 281 283 281 276 283 292 287 290 288 289 290 292 292 289 291 294 297 296 295 294 293
292 294 292 297 298 299 291 290 289 285 284 282 282 284 287 287 291 292 291 291 291 290 290 289 291 291 289 289 287 287 286 287 286 288 286 284 287 283 285 284 284 286 287 287 289 289 286 286 284 280 278 276 276 277 282 284 283 284 283 281 281 282 281 281 280 282 278 282 281 279 281 287 292 290 293 293 292 292 293 294 291 291 293 295 297 298 296 294
290 284 289 290 292 295 291 289 291 289 286 284 283 285 286 286 289 287 290 291 293 292 290 292 288 290 289 287 286 285 286 287 285 285 285 286 286 286 285 281 282 285 287 287 287 287 285 284 285 287 285 283 285 286 284 283 283 281 283 279 282 282 284 284 284 282 279 282 279 283 284 286 288 291 292 293 294 293 293 294 294 295 295 294 293 293 294 295
292 283 285 283 288 290 288 289 288 290 288 289 285 283 282 285 286 288 291 288 290 290 291 290 289 288 286 286 286 286 288 286 286 285 284 284 286 286 282 283 282 283 285 288 289 285 284 283 284 284 286 288 289 287 286 282 284 286 284 283 282 282 282 282 281 280 286 282 278 284 285 283 285 289 290 291 291 292 292 293 294 294 294 296 297 296 293 293
284 285 288 289 283 283 285 286 288 288 288 288 285 286 285 284 286 285 288 290 290 289 289 289 287 290 291 289 289 284 285 285 285 284 285 285 286 287 285 283 284 285 287 285 287 285 285 282 285 284 283 286 288 287 287 283 283 285 285 285 283 282 282 280 282 286 285 282 281 286 287 285 286 288 290 291 292 292 293 294 295 294 294 294 293 293 294 294
291 290 289 291 286 285 286 287 287 288 287 287 287 286 285 286 286 288 288 288 289 288 289 285 287 290 290 291 288 286 287 283 283 285 284 285 284 285 286 285 283 283 285 284 284 285 284 283 284 284 283 285 286 286 285 283 283 282 283 283 285 283 282 283 284 285 286 285 287 288 287 287 290 290 291 292 293 293 294 294 293 292 292 295 295 295 295 295
286 286 285 289 288 287 288 288 289 288 286 288 284 286 286 286 286 288 288 286 285 287 289 286 288 289 291 290 289 286 288 288 288 285 289 288 286 286 286 288 287 283 285 284 285 285 285 283 284 281 280 282 284 284 282 282 281 280 283 284 284 283 283 283 284 285 285 285 286 286 286 286 291 293 292 292 292 293 294 293 293 294 294 294 295 295 295 295
291 292 291 285 283 286 287 287 286 286 284 286 284 286 285 287 286 289 288 291 289 287 288 288 290 290 290 289 289 289 291 290 291 290 292 291 285 292 287 288 290 284 283 283 283 284 285 283 281 282 280 281 281 281 283 278 277 277 278 281 281 280 278 281 281 284 284 283 285 284 282 283 289 291 291 291 292 292 292 293 294 294 295 294 293 294 294 296
294 295 294 290 281 286 283 287 287 286 282 286 286 286 285 286 288 289 285 291 292 292 292 291 291 289 288 288 287 290 293 293 292 294 294 293 294 292 292 292 292 289 285 285 285 284 284 283 282 282 280 280 283 277 276 276 278 278 279 280 282 282 284 285 285 285 286 287 284 282 284 289 291 291 289 290 291 291 292 293 294 294 295 294 293 293 295 296
Wind_Speed
17 16 16 15 14 14 14 14 14 13 12 12 11 10 8 6 6 6 7 7 6 6 5 4 4 5 6 6 4 3 3 4 2 1 2 2 3 4 5 5 7 5 4 4 4 4 3 2 5 3 3 3 2 1 1 2 2 2 4 2 3 0 4 5 5 6 2 1 7 9 10 8 7 5 4 3 7 10 8 7 9 11 14 13 7 3 3 2
16 17 16 16 15 15 15 15 14 14 13 12 11 11 10 8 6 5 5 6 7 7 6 6 5 6 6 5 4 4 5 4 4 4 2 3 2 5 7 8 5 3 5 4 2 2 5 3 2 0 3 2 1 1 1 1 2 3 1 2 3 3 1 1 3 2 1 2 5 6 6 7 1 7 5 6 7 9 10 13 12 14 17 17 17 11 6 5
16 16 16 17 16 16 15 15 14 14 14 13 12 12 11 11 9 7 6 5 5 6 6 5 5 4 4 4 3 5 4 2 4 3 3 3 3 7 6 5 5 7 5 2 1 2 2 1 3 3 0 2 2 2 2 2 3 1 3 3 2 2 2 1 3 3 2 2 4 5 5 6 1 1 5 7 4 4 13 11 10 15 18 19 19 15 14 10
16 16 16 16 16 16 16 15 15 14 14 14 12 11 10 11 10 9 8 6 5 5 5 4 2 2 2 3 4 2 4 2 2 0 2 3 7 7 6 2 4 5 3 4 2 2 2 5 3 2 2 3 1 1 4 2 3 2 3 3 2 0 3 1 1 2 2 3 2 3 4 5 7 2 5 3 7 13 15 15 11 12 16 10 6 10 13 14
16 16 16 16 16 16 16 16 15 15 14 14 14 12 11 11 11 10 9 8 6 6 4 4 2 2 4 2 3 2 2 3 2 1 3 7 9 8 5 2 6 3 1 6 6 4 2 2 2 3 1 2 2 2 0 2 3 4 1 3 1 1 0 2 1 2 1 2 1 4 6 6 4 2 9 7 9 7 3 3 11 14 9 5 3 5 5 10
16 16 15 15 15 16 16 16 16 16 15 15 14 13 12 10 11 11 10 10 8 5 4 3 1 2 2 5 4 2 3 2 1 1 6 8 8 7 2 6 6 4 6 4 2 3 3 2 3 2 1 3 3 4 3 1 2 3 2 1 1 2 1 1 1 1 2 3 4 5 3 3 6 5 8 12 17 7 5 2 2 3 4 3 2 4 7 9
17 16 16 16 15 15 15 15 16 16 15 15 15 14 13 11 11 11 10 10 10 7 4 2 1 1 5 3 2 0 1 3 1 1 8 8 5 4 7 7 6 5 2 4 2 3 2 2 2 2 2 1 1 1 2 0 1 2 1 3 2 2 1 0 0 2 2 4 4 0 2 5 4 7 2 10 19 21 9 4 4 5 5 5 8 7 9 9
18 18 18 17 15 15 14 14 13 14 14 14 15 14 13 12 10 10 10 10 9 8 4 1 1 3 4 2 1 1 1 1 1 2 6 6 3 4 5 4 2 3 3 4 5 3 3 3 4 3 2 3 1 3 1 2 2 3 2 4 3 2 1 0 1 2 3 4 1 2 4 6 8 5 2 12 18 14 14 12 11 9 8 9 10 13 13 13
19 19 18 17 17 15 15 14 13 12 13 14 14 14 13 12 11 11 9 9 8 7 4 3 4 4 1 1 1 2 1 1 2 3 5 3 3 3 2 2 0 5 2 1 1 2 3 2 2 6 3 3 2 3 1 2 3 3 2 7 3 2 1 1 1 2 4 1 3 5 8 5 4 1 9 21 12 2 2 5 7 5 7 9 10 12 11 11
19 19 19 18 18 18 17 15 14 13 13 14 14 14 13 13 11 11 10 8 7 7 5 2 6 6 1 2 1 2 2 3 1 3 5 1 4 4 4 1 3 4 4 1 2 4 5 3 1 5 6 5 2 2 2 2 2 3 7 4 4 2 2 2 4 1 2 3 4 4 5 3 4 3 8 4 1 3 3 5 4 4 8 9 8 8 8 10
20 20 20 20 19 19 19 19 18 16 14 13 14 15 14 13 12 11 10 9 5 5 3 5 9 5 1 1 1 1 1 2 1 4 7 2 3 1 2 1 1 3 1 1 3 2 1 4 4 4 1 1 6 2 2 2 3 3 7 8 5 2 2 2 5 1 2 4 4 3 8 1 2 2 12 2 3 2 5 7 5 5 7 8 8 8 7 7
20 19 19 19 20 19 20 19 19 18 17 15 14 14 14 13 13 12 10 7 5 3 1 5 8 3 3 0 2 2 1 2 3 4 6 3 2 1 1 1 1 2 4 4 3 0 1 3 5 2 1 2 3 3 2 3 1 5 1 3 3 3 4 6 1 3 4 1 1 1 8 5 5 9 8 2 1 4 5 8 8 8 8 8 7 6 6 6
23 23 21 20 20 20 20 20 20 20 18 16 15 14 12 11 11 10 7 5 0 1 2 5 3 1 1 2 1 2 1 3 2 1 5 5 3 2 2 2 3 1 3 4 3 1 2 4 2 7 1 1 3 1 5 2 3 1 3 2 3 4 2 6 2 2 3 1 3 3 7 1 6 13 5 2 3 5 7 8 9 9 7 6 6 5 6 6
24 21 23 21 21 20 20 20 20 20 20 17 13 12 12 12 10 7 5 6 1 4 6 4 1 1 1 1 1 0 2 2 2 5 9 4 3 1 2 2 2 2 3 6 4 1 2 3 5 9 3 3 3 2 6 2 3 3 0 2 1 3 1 4 4 8 2 2 6 3 4 9 4 6 3 3 1 4 7 11 11 9 7 6 5 5 6 7
24 24 22 24 21 20 21 22 21 21 20 16 17 15 13 10 7 5 4 2 4 7 8 5 1 2 0 1 1 3 4 1 3 3 3 6 4 2 2 3 5 6 4 5 4 1 1 2 3 2 3 1 3 3 2 1 1 0 2 3 1 2 1 3 5 9 3 1 4 4 7 8 9 11 4 3 3 5 9 12 10 9 7 6 4 5 5 6
22 25 25 22 22 21 20 21 21 21 19 19 18 17 10 5 3 3 4 4 5 8 3 2 2 1 0 1 2 4 1 1 3 3 1 3 4 3 3 2 2 2 1 4 2 1 1 6 7 1 4 1 3 2 2 2 2 1 2 1 1 1 3 3 3 2 2 5 1 3 7 10 9 4 4 3 2 4 9 12 10 9 8 6 4 5 5 6
22 21 24 24 21 21 21 20 21 19 20 21 19 11 4 3 4 5 7 6 4 1 1 1 2 1 4 1 1 1 1 1 1 1 2 2 2 1 1 2 1 2 3 3 1 2 4 2 1 1 2 1 1 1 3 3 2 2 1 1 1 2 2 3 4 1 5 3 3 1 4 13 12 8 4 7 3 7 9 10 10 8 6 5 5 5 5 5
23 23 23 22 20 21 21 21 20 19 23 23 16 8 3 5 4 5 5 5 2 3 3 1 1 2 1 1 0 2 1 4 5 4 2 0 3 1 1 2 1 2 1 0 1 1 4 1 2 1 2 2 2 3 3 2 1 1 2 1 1 3 4 5 5 3 8 2 3 3 8 18 18 15 13 12 1 6 10 9 9 8 7 5 4 4 4 4
24 24 21 20 20 21 21 20 20 18 20 23 8 1 2 5 3 3 5 2 2 2 2 1 2 3 2 0 2 3 1 1 3 3 2 5 3 0 2 1 3 2 0 1 1 1 3 1 1 1 5 4 2 2 3 2 1 1 2 0 0 4 1 3 1 4 7 8 7 7 8 11 15 14 14 10 5 7 10 9 8 8 6 5 4 3 3 3
24 22 19 19 19 20 20 20 19 17 20 14 6 1 0 3 2 2 3 4 4 0 1 2 1 2 2 2 3 6 2 2 1 2 1 1 3 1 1 1 2 2 1 3 1 3 2 4 3 4 1 2 1 1 2 2 1 5 4 2 0 2 5 0 0 2 3 5 7 5 8 13 17 18 16 13 4 7 10 10 8 7 5 3 3 2 3 3
25 23 22 21 19 19 20 19 17 16 17 8 5 5 4 1 3 2 6 4 1 2 3 1 1 1 4 3 3 6 2 1 1 2 4 2 3 2 1 1 1 4 2 1 1 2 2 3 3 2 2 2 4 3 0 2 4 1 4 1 1 2 4 2 1 2 2 6 6 2 9 16 17 17 12 6 4 10 11 9 8 7 4 3 3 3 3 3
25 25 24 24 19 20 19 17 16 15 8 4 10 7 3 3 2 2 2 4 1 2 1 1 2 2 1 3 1 1 3 2 1 3 1 5 2 2 1 1 2 4 2 1 2 2 1 4 2 3 3 5 3 1 1 1 2 1 1 1 2 1 5 2 1 1 0 3 7 5 13 17 17 13 9 5 7 5 2 3 3 3 4 3 2 3 3 3
25 25 24 24 23 21 19 17 11 9 6 8 7 4 3 3 3 2 3 2 5 1 1 1 2 2 1 2 0 3 1 1 1 5 7 8 0 3 1 3 2 1 1 2 5 1 5 1 4 3 1 2 2 3 2 3 1 0 2 2 4 2 3 3 2 1 2 2 6 10 12 14 11 4 2 1 3 4 5 5 7 6 6 4 2 3 4 4
24 24 23 23 24 23 19 14 5 3 7 6 9 6 3 2 3 1 2 3 4 2 1 1 0 1 0 2 0 2 2 1 1 2 4 4 1 1 0 3 3 1 4 1 4 5 2 3 2 2 1 2 2 2 2 2 2 0 1 1 1 1 2 1 3 5 3 1 2 11 9 7 1 2 1 3 2 4 2 4 7 6 7 6 5 5 5 4
23 23 23 24 25 24 21 8 4 4 1 2 4 2 2 1 1 3 3 2 2 2 2 1 2 1 1 2 1 1 2 2 1 3 3 4 1 2 2 0 2 3 2 0 2 1 1 1 2 3 1 1 1 2 4 1 3 1 3 1 1 3 2 2 4 8 3 2 2 8 8 6 0 4 6 2 4 4 1 3 5 4 3 3 5 4 3 4
22 22 22 22 25 26 17 0 3 3 3 4 4 3 2 1 1 1 2 2 2 0 0 2 2 1 2 0 4 2 2 1 1 1 2 2 1 1 3 1 2 2 3 1 1 2 3 0 2 2 3 3 1 2 1 2 1 2 1 1 2 3 2 0 5 4 5 6 2 1 3 8 2 7 3 2 5 7 5 5 7 4 4 4 5 3 3 2
23 22 21 22 23 23 6 3 5 4 1 3 4 5 4 1 3 3 2 0 2 1 1 2 1 1 1 2 2 2 1 2 1 1 0 2 2 2 2 1 2 2 1 1 0 3 4 3 2 0 3 3 2 3 2 2 2 3 2 2 3 2 0 1 1 1 4 2 2 1 1 5 10 6 2 2 4 6 6 8 8 7 6 7 5 4 3 3
23 23 21 23 22 11 2 3 6 4 3 2 4 5 4 1 4 1 1 1 1 2 2 1 1 1 1 0 1 1 1 3 1 2 2 1 1 2 2 3 2 2 1 2 5 4 0 5 5 5 2 3 4 1 1 2 2 2 3 2 1 1 2 2 1 2 1 4 4 4 1 3 6 4 2 1 5 3 6 8 10 9 8 7 7 5 4 4
21 23 23 23 22 1 3 2 2 1 1 4 3 3 0 3 3 1 0 1 1 3 1 2 1 1 5 3 3 2 1 1 2 2 1 1 2 2 2 1 4 6 2 0 4 2 2 1 3 1 4 4 4 1 1 1 1 2 4 3 4 3 3 0 1 1 1 0 4 4 3 3 9 1 2 2 2 6 4 4 7 9 9 8 6 5 3 2
21 21 22 24 14 2 3 1 0 2 2 5 4 2 2 2 2 1 3 4 3 1 2 1 1 5 3 3 1 6 1 2 1 6 3 2 2 3 4 0 3 3 2 3 6 2 2 1 2 2 2 3 5 4 2 2 3 9 5 3 2 1 1 1 1 0 1 3 2 3 2 3 6 2 2 2 1 1 2 2 2 4 5 6 5 5 3 3
22 22 21 20 5 5 5 1 1 1 7 5 4 3 3 2 0 2 2 1 2 1 1 5 2 3 4 3 2 2 1 4 3 3 2 1 2 4 3 1 2 1 1 1 2 2 2 1 2 2 2 2 2 6 2 1 3 3 2 2 2 3 2 2 1 1 2 3 4 2 2 3 4 3 1 3 3 4 4 5 4 4 9 8 7 6 4 2
22 22 21 12 2 3 4 6 8 8 6 6 4 1 1 2 0 3 3 4 1 1 3 3 1 1 2 1 1 4 3 3 3 4 2 3 0 2 4 4 3 1 2 1 1 2 3 4 2 1 1 2 2 4 3 1 2 2 2 2 2 2 2 2 2 3 3 3 3 1 3 3 11 13 6 7 6 7 7 6 5 4 5 6 5 4 1 1
23 22 21 1 1 0 2 4 7 8 8 5 1 2 1 0 2 1 2 2 1 2 0 2 3 2 3 4 2 3 0 0 3 1 1 1 1 2 2 1 1 2 6 1 2 1 1 3 0 3 1 2 3 5 3 3 4 3 4 3 1 2 0 3 1 1 4 1 1 1 1 5 8 9 11 15 13 6 4 5 6 7 7 5 3 2 3 3
22 21 8 1 1 1 2 5 6 7 6 2 1 2 4 1 2 2 2 2 2 1 1 2 2 2 0 2 3 3 1 2 2 2 1 0 1 3 1 1 3 3 1 2 3 0 5 4 5 6 3 3 4 3 4 4 6 5 3 2 1 1 2 3 1 6 4 1 2 1 1 3 3 1 1 6 5 5 4 4 4 6 7 6 5 5 6 7
23 11 4 3 1 2 3 5 5 4 5 0 4 1 2 3 1 2 2 2 2 1 1 1 1 4 1 2 3 2 1 0 2 2 1 0 1 1 2 2 4 2 3 2 1 0 4 5 3 3 2 2 2 2 3 2 2 1 1 2 1 3 1 5 1 1 0 2 2 3 5 2 6 6 9 6 6 10 8 9 6 9 6 5 6 6 6 6
12 5 2 1 3 4 2 3 5 3 3 3 3 1 4 3 1 2 1 1 1 2 3 2 1 0 1 2 0 3 2 2 2 2 0 1 1 3 3 2 3 6 3 4 2 3 1 4 4 0 2 0 3 3 1 2 2 3 3 3 0 4 2 6 2 3 0 1 6 1 6 7 6 10 6 3 2 7 2 4 4 6 4 3 6 6 7 7
7 8 1 4 4 6 5 3 3 2 2 4 3 2 2 2 4 3 2 3 2 3 2 4 2 1 1 1 1 1 1 2 1 2 2 1 2 6 2 1 1 2 3 3 1 1 2 2 2 1 4 3 2 2 3 3 3 1 3 2 1 1 2 1 3 1 1 4 3 2 5 7 5 6 2 5 5 4 2 1 2 3 2 5 8 7 7 7
8 4 3 4 4 6 4 2 2 2 3 3 2 2 1 1 3 1 1 1 2 1 1 1 4 2 2 1 1 1 1 2 1 0 1 1 2 5 2 2 4 3 3 2 2 1 1 4 2 1 2 1 1 2 3 2 2 3 3 4 3 2 3 1 0 3 3 3 3 3 2 5 6 9 1 7 4 4 1 2 3 3 4 8 8 8 7 7
2 1 1 1 1 5 5 3 1 3 3 1 1 2 2 4 2 2 1 2 3 1 4 3 2 1 1 2 1 2 1 2 1 0 2 1 1 3 1 1 1 2 1 1 1 2 1 3 1 2 2 1 1 1 4 4 2 2 1 2 2 2 3 2 2 2 0 4 1 2 2 7 6 6 5 5 5 6 5 4 4 5 5 5 6 6 7 8
4 1 2 2 6 8 4 1 2 4 3 2 2 3 2 2 2 0 0 1 2 1 2 2 0 2 1 2 1 3 1 1 2 0 2 0 3 1 2 3 3 3 3 1 3 2 0 2 4 3 4 2 2 6 5 5 6 4 3 1 1 2 2 3 1 2 2 2 2 3 4 6 8 5 6 9 7 7 4 5 5 4 4 5 6 6 7 8
3 1 2 3 8 9 4 3 2 1 2 1 0 2 0 2 3 1 2 1 1 1 3 2 0 3 1 1 4 3 2 1 0 2 4 1 4 4 1 3 2 2 2 2 3 2 1 1 5 1 1 4 2 4 2 3 3 2 6 7 7 6 3 2 6 5 1 3 4 3 9 2 10 6 6 6 7 6 1 4 6 7 6 6 5 6 7 7
3 0 1 6 10 9 1 1 2 1 1 3 1 3 1 1 1 2 1 1 3 3 2 2 2 2 1 2 2 2 1 2 3 1 3 5 3 5 1 2 1 1 2 1 2 3 2 1 1 4 4 4 2 3 1 1 0 2 2 3 2 4 1 4 9 3 1 3 4 2 4 6 9 6 6 8 3 1 1 1 6 7 7 6 6 6 6 8
4 4 6 7 6 6 3 3 1 0 1 0 3 2 1 1 2 1 1 1 1 2 1 1 3 1 3 4 1 1 2 5 6 5 5 5 5 3 4 0 1 0 2 2 2 3 4 2 3 5 2 1 1 1 2 1 2 1 3 1 1 6 5 4 3 1 2 2 2 2 5 6 9 4 5 3 3 3 4 6 8 9 7 6 7 6 6 7
3 5 5 2 4 4 1 2 2 2 2 2 1 3 2 1 2 1 3 2 2 2 3 1 1 7 3 1 1 1 4 2 5 8 4 1 2 5 1 1 3 1 1 2 1 0 2 1 2 4 5 3 2 2 1 0 0 3 3 5 8 2 3 1 2 0 3 5 4 2 12 3 7 0 1 3 3 4 7 6 8 8 8 6 6 4 4 6
5 4 4 6 5 2 2 1 1 2 1 1 1 3 1 2 4 6 4 4 1 2 1 3 2 2 2 1 1 2 3 7 4 3 2 1 4 2 2 2 3 2 1 2 5 1 1 2 3 4 7 7 5 4 5 1 2 3 3 1 5 9 4 2 6 4 8 3 9 3 9 14 10 4 7 9 6 9 9 6 5 8 9 7 5 5 5 4
3 2 1 2 4 3 4 1 1 2 1 1 2 2 1 3 0 0 3 4 3 2 3 1 1 2 1 3 2 3 4 3 5 2 1 1 3 2 3 2 2 2 1 3 3 1 1 1 3 6 7 11 8 6 1 4 2 2 3 6 8 9 9 7 1 2 9 4 5 8 12 17 20 15 11 12 8 9 11 7 7 8 8 7 7 7 6 5
2 1 2 2 2 4 2 3 1 1 1 0 2 1 1 3 3 3 3 2 2 1 2 5 2 3 3 2 5 7 7 3 3 2 1 2 4 4 3 1 2 3 4 2 1 3 0 4 5 8 12 14 12 13 9 7 13 12 7 7 8 10 12 12 10 11 6 1 13 8 17 14 18 20 18 19 21 12 9 10 8 7 9 9 7 6 6 6
1 0 1 1 1 1 0 2 4 2 2 1 1 2 2 2 2 0 1 2 1 3 3 0 1 5 5 6 1 3 3 0 1 2 2 6 4 3 1 2 1 3 2 1 1 3 1 5 2 4 11 14 12 13 10 5 9 13 11 10 9 12 12 13 14 16 7 9 14 11 16 18 18 18 19 20 20 16 9 12 8 8 7 5 4 9 10 9
1 3 2 4 1 0 0 2 1 2 3 1 1 2 3 3 8 5 3 3 1 2 5 5 3 4 6 3 2 7 4 3 2 4 2 1 3 3 2 1 2 2 0 0 0 1 1 6 4 6 9 9 10 10 7 9 9 9 12 12 11 11 16 18 16 16 17 17 19 18 19 22 10 11 16 19 15 14 10 5 4 7 11 8 9 11 12 11
3 3 2 2 2 3 4 4 1 2 3 3 1 4 3 5 8 3 1 3 5 5 2 7 4 3 6 4 4 6 1 1 5 12 5 3 6 3 4 5 1 1 1 2 1 2 3 4 7 0 2 6 7 5 4 8 8 9 14 14 11 8 10 15 14 17 17 20 17 17 18 20 10 10 16 21 15 15 13 17 17 11 10 11 11 13 12 12
3 1 3 4 4 3 2 5 5 4 3 4 5 5 4 6 5 3 5 4 9 6 3 6 3 5 5 5 6 8 4 8 11 15 14 8 12 3 4 4 5 1 1 2 1 2 4 3 3 0 6 11 3 6 5 1 5 10 14 13 6 6 10 9 12 14 13 17 11 15 16 16 14 21 18 18 17 17 18 18 15 11 10 7 9 11 12 11
1 0 2 2 3 4 3 1 2 3 8 7 7 5 5 3 3 4 4 6 11 12 10 9 6 6 9 6 10 9 8 7 10 12 8 8 8 8 7 10 7 9 4 5 2 3 6 2 2 2 8 11 4 2 5 6 6 12 17 14 17 18 17 12 14 13 18 19 16 14 16 17 15 10 9 17 15 17 16 11 11 11 9 7 9 11 13 13
Wind_Direction
9 6 5 3 359 357 355 354 351 351 351 350 345 340 336 337 333 330 323 318 313 300 296 295 273 243 229 215 214 199 114 170 155 123 146 211 222 236 281 284 295 290 209 232 205 183 148 173 191 35 159 235 30 196 98 72 351 220 211 248 226 341 210 160 188 187 350 181 167 181 194 195 193 164 197 165 240 233 245 243 240 242 245 243 244 108 90 144
10 7 3 360 358 356 354 351 348 347 346 344 342 340 336 331 326 322 317 308 308 303 293 286 264 246 239 207 190 192 178 188 186 146 96 90 193 275 286 284 277 198 171 229 198 213 192 176 161 36 180 196 20 56 246 109 289 230 145 248 298 195 50 267 13 107 310 37 141 173 187 218 165 161 169 211 223 211 245 247 236 246 250 244 244 223 199 184
8 6 0 357 354 353 354 350 348 344 342 340 338 335 334 333 328 317 302 289 287 286 270 269 265 252 227 210 196 191 200 140 179 194 126 105 297 294 296 284 256 179 206 249 185 213 251 203 148 193 49 220 39 144 242 62 280 71 248 242 253 39 60 18 3 85 351 318 121 158 196 224 107 215 100 230 242 183 231 233 216 231 247 236 235 223 219 210
4 3 2 357 352 350 348 347 346 342 339 337 332 329 325 328 328 323 317 307 305 302 290 270 257 229 206 229 198 176 199 170 215 64 112 353 321 321 312 275 178 162 177 58 119 116 98 96 118 246 155 242 98 237 216 84 263 105 221 245 48 34 148 88 262 23 350 344 40 135 97 213 239 219 197 249 246 238 238 232 222 220 230 245 218 218 216 215
0 0 1 355 353 352 348 345 342 341 338 335 332 325 325 327 327 328 318 316 310 309 313 297 302 198 199 209 124 225 169 240 99 229 42 340 335 327 311 227 147 169 257 137 112 78 142 170 159 58 264 226 127 196 24 89 355 153 301 14 333 36 297 84 354 33 20 12 109 127 158 212 65 218 228 235 239 252 212 234 228 249 269 291 245 219 221 225
358 359 354 353 351 350 345 343 340 339 338 335 330 327 323 319 329 325 324 316 312 308 307 300 326 248 120 139 150 219 260 8 141 130 342 343 339 338 75 123 114 141 137 104 125 138 184 113 203 209 192 239 173 233 89 31 345 216 124 292 267 336 302 76 310 87 179 142 164 176 214 58 205 244 220 227 235 239 70 53 8 335 2 12 330 264 236 230
356 354 350 350 349 344 341 337 336 335 333 332 330 325 322 319 325 323 318 317 308 302 309 312 86 183 158 127 80 139 275 278 52 13 352 338 349 53 100 116 135 143 140 132 151 188 129 140 231 194 135 46 142 197 87 121 220 292 113 156 178 231 26 344 43 109 201 201 203 10 19 233 159 253 126 229 239 246 253 187 245 262 269 255 270 241 243 240
353 352 349 346 343 338 333 332 326 328 327 326 325 320 318 318 319 319 316 309 304 297 299 260 207 156 176 132 204 254 319 279 93 360 332 345 43 82 90 81 110 126 168 219 177 176 150 190 229 127 241 274 95 193 5 184 159 205 173 197 131 234 94 41 70 185 211 239 339 238 224 233 209 265 14 252 248 246 251 274 287 289 281 266 256 258 252 249
351 349 347 341 339 336 335 329 324 318 317 320 319 321 318 312 318 316 311 306 299 294 278 193 190 160 267 178 185 258 169 46 47 351 338 360 71 74 321 161 352 178 151 129 298 217 195 248 117 200 283 186 169 154 4 228 207 208 107 146 156 144 83 59 169 187 211 205 204 208 241 238 232 79 252 251 261 90 315 274 261 270 270 261 252 254 252 251
352 347 343 339 337 337 332 330 324 319 316 316 314 319 317 312 313 316 308 301 299 293 268 192 148 155 171 163 208 294 89 93 52 360 360 133 101 116 81 35 162 169 165 162 142 162 200 196 196 157 110 74 185 59 53 229 355 125 118 120 127 85 238 190 219 151 215 222 183 257 271 242 135 222 281 176 61 350 265 252 224 249 269 269 264 262 252 251
353 351 344 343 338 332 335 334 329 324 317 315 316 316 311 308 313 312 307 296 290 291 298 148 159 170 166 275 267 358 136 138 77 24 17 111 116 17 20 316 210 171 274 85 231 223 27 127 131 116 295 176 155 91 252 60 99 93 123 108 95 173 151 147 221 98 201 169 195 256 276 290 171 210 250 237 160 310 317 295 283 270 283 287 285 277 271 259
355 350 347 344 337 337 334 332 328 321 319 314 314 310 309 303 312 309 301 295 291 305 246 165 160 128 105 228 230 36 311 69 116 51 26 40 95 20 315 1 244 258 199 227 210 247 247 138 163 123 240 167 175 137 104 169 358 130 154 201 172 216 191 31 323 24 301 108 166 229 280 217 173 223 244 360 4 347 302 292 294 299 298 294 291 288 276 268
358 355 349 343 340 338 334 331 328 323 317 316 312 306 295 296 297 307 295 288 328 113 155 143 116 327 124 264 86 47 65 151 106 52 44 35 93 126 89 76 75 33 284 229 152 150 133 157 214 93 285 40 115 293 115 153 78 127 220 286 175 185 167 20 327 309 262 50 339 248 305 223 190 226 221 157 348 326 302 293 303 303 298 291 281 279 280 276
357 352 351 345 344 334 334 331 327 323 319 313 303 305 306 300 298 291 290 258 194 135 137 125 36 114 203 277 125 117 187 124 225 11 8 315 216 157 201 98 83 74 12 78 70 82 125 248 87 101 82 44 122 170 147 115 199 231 158 242 1 277 157 40 22 323 203 4 329 273 274 289 247 185 149 46 74 9 312 301 296 292 288 276 265 258 275 281
355 355 352 350 340 336 334 332 326 323 317 313 315 313 312 300 298 295 300 169 113 130 128 117 347 213 191 94 276 104 119 207 45 6 352 6 353 154 7 16 40 40 50 85 120 107 120 205 134 77 75 258 103 171 161 186 124 351 231 174 155 297 118 84 32 25 29 23 330 314 264 262 295 298 80 98 79 28 305 292 286 283 276 272 276 288 290 291
352 353 351 346 342 338 333 331 328 322 316 318 321 317 315 311 322 25 71 75 136 130 148 173 142 308 250 252 109 148 196 216 19 17 352 341 21 8 0 303 312 63 234 74 81 147 51 65 65 69 126 110 210 229 192 206 173 64 303 291 232 257 317 267 73 29 10 278 291 291 287 318 299 24 83 139 16 325 292 287 284 279 274 276 290 299 292 297
352 348 349 347 341 336 334 331 328 321 320 325 323 317 328 20 96 112 85 84 78 105 294 255 117 153 279 71 249 257 348 23 319 274 7 66 355 343 226 162 30 80 66 152 175 216 14 87 256 184 34 39 22 267 238 246 254 212 5 278 40 282 10 301 131 82 348 345 280 101 245 255 264 265 216 206 240 310 281 274 279 275 265 270 281 279 288 298
351 351 348 340 336 337 335 332 328 323 327 327 328 309 342 52 138 121 104 63 89 75 87 150 169 205 176 284 258 1 39 293 349 328 274 62 355 347 316 139 181 142 151 120 80 192 342 134 267 20 205 175 196 204 227 250 241 204 194 263 191 194 211 300 303 36 337 120 278 260 258 269 267 271 269 265 170 258 258 264 275 281 277 273 268 277 291 299
348 348 342 340 335 337 336 333 330 323 328 329 314 103 95 123 96 88 81 350 219 234 229 115 285 293 343 354 295 289 228 316 281 307 10 7 338 54 97 86 77 220 160 318 137 240 356 114 255 238 223 201 201 282 266 353 162 229 214 178 351 300 181 290 66 40 13 322 300 242 259 282 287 283 279 273 189 232 255 268 264 258 257 260 266 278 294 311
346 342 339 338 336 337 336 335 330 326 336 341 358 172 6 29 2 182 24 42 56 354 321 6 332 309 278 50 336 311 185 272 250 85 264 60 293 208 42 334 72 89 145 245 345 68 318 218 216 224 275 75 41 282 321 348 46 96 97 132 337 284 277 168 60 31 303 278 246 268 267 275 279 274 268 275 194 238 254 252 238 236 236 255 283 297 313 308
345 340 335 336 336 337 336 335 331 327 335 338 307 43 47 330 331 355 336 306 98 74 12 25 24 305 322 317 315 354 20 94 93 16 25 254 254 228 248 343 55 222 59 359 295 71 256 270 234 67 61 100 106 109 10 99 4 138 126 241 195 188 301 87 80 54 342 13 294 148 286 274 266 274 284 271 202 248 239 232 233 232 227 243 277 311 324 337
345 341 337 334 334 337 335 334 340 332 353 335 44 69 83 24 18 334 315 280 142 152 218 93 182 282 181 225 89 218 162 312 116 4 90 328 20 260 56 237 168 238 87 185 231 213 151 237 87 76 84 103 101 19 3 331 131 53 270 118 292 203 276 243 54 100 243 315 280 350 315 294 289 298 304 269 233 250 287 272 258 282 270 260 263 283 313 329
345 340 337 331 332 334 336 329 343 11 7 25 33 48 43 14 357 330 298 226 277 147 174 124 152 356 8 121 187 225 327 58 290 14 352 351 165 34 232 202 187 79 102 143 238 94 269 129 108 103 205 148 95 65 61 101 93 178 158 231 295 24 334 307 114 1 201 271 303 324 303 285 297 288 273 94 226 268 279 266 261 246 263 264 281 322 303 310
344 341 336 331 327 331 328 331 299 40 48 68 77 40 317 354 355 211 257 272 317 322 10 103 243 132 9 328 103 306 18 115 300 347 25 346 63 261 273 38 120 234 218 72 224 233 256 58 58 148 38 312 143 65 165 200 222 41 286 190 235 191 154 244 347 310 200 112 264 288 264 267 37 301 217 122 205 260 241 265 242 231 237 268 297 276 240 260
341 340 337 333 332 325 326 317 46 29 207 136 87 52 356 36 327 277 284 263 204 224 176 310 171 237 105 159 96 315 125 98 359 288 325 344 5 260 61 204 286 229 68 75 108 168 133 98 151 149 131 64 142 187 213 228 266 146 208 306 74 105 197 287 307 323 285 199 95 7 330 296 286 255 256 339 331 264 152 300 257 237 209 205 244 245 191 231
339 336 337 337 335 327 311 227 41 12 318 54 52 346 329 357 161 285 277 50 296 84 278 112 232 127 177 191 3 76 184 348 274 330 330 31 213 335 141 111 6 271 146 117 313 8 39 142 262 156 170 116 320 273 54 184 246 272 130 121 109 123 90 34 334 325 312 315 65 282 294 289 248 275 268 11 311 283 268 259 262 256 232 222 234 222 202 201
337 334 336 339 339 330 353 357 321 283 47 83 35 333 327 258 158 157 269 9 261 104 71 3 263 75 216 342 342 202 242 126 16 122 182 350 2 289 246 74 120 63 24 174 182 196 131 128 141 166 149 174 183 236 144 268 257 252 55 142 133 114 31 33 301 152 279 326 266 82 286 276 299 291 56 333 290 277 267 247 241 235 228 225 226 220 205 197
335 332 332 339 340 341 62 289 336 43 39 357 328 344 330 185 135 182 241 43 277 48 48 343 42 317 242 307 278 66 322 301 170 168 214 187 239 152 304 210 225 114 89 188 257 61 182 150 193 156 183 182 219 37 49 294 276 45 166 314 108 43 69 151 254 289 345 332 272 140 343 253 247 241 126 277 300 256 256 235 227 225 221 218 226 224 206 208
334 330 330 339 333 41 15 309 137 86 68 320 306 308 358 222 232 258 47 248 137 72 148 85 342 119 353 238 35 77 297 343 322 58 262 277 7 255 209 125 122 113 65 305 266 124 307 357 228 245 175 213 95 108 31 259 190 141 134 111 94 92 74 137 275 264 207 233 266 136 342 260 273 266 296 101 238 273 260 247 232 217 215 211 217 222 208 195
333 329 330 338 327 199 325 216 67 100 280 311 281 221 141 225 217 240 57 249 356 324 30 294 205 316 322 336 279 10 189 28 303 318 20 171 34 87 50 128 131 138 119 67 68 50 347 267 291 312 289 33 124 65 7 55 65 123 168 139 111 76 127 133 64 266 204 232 218 65 323 288 299 254 243 193 245 213 186 270 242 241 238 234 235 233 215 182
331 330 330 339 343 344 288 350 70 18 322 304 283 171 169 49 89 103 186 230 31 357 207 27 4 353 19 39 352 21 108 339 332 345 174 23 134 65 129 167 151 115 135 144 138 97 145 112 215 36 12 112 132 96 62 321 83 176 171 213 235 183 160 163 159 207 232 249 99 333 24 303 239 289 199 256 312 251 251 283 281 236 227 218 214 223 221 222
330 326 329 335 305 337 347 329 331 333 311 300 287 96 175 241 81 212 215 324 268 14 59 306 31 6 354 342 239 350 358 335 358 14 23 5 160 211 169 232 157 277 251 188 248 125 214 164 72 53 276 306 215 124 107 144 238 213 189 209 282 295 339 249 155 228 189 266 100 21 270 263 226 242 306 286 248 243 224 249 284 306 270 226 218 222 215 200
328 324 322 255 331 271 257 296 317 307 296 270 37 9 165 130 234 233 270 338 259 350 149 159 272 342 328 296 180 354 279 94 356 99 308 55 268 240 1 311 181 225 274 78 279 294 240 71 137 112 214 192 266 222 161 218 177 194 195 182 210 258 182 259 247 353 303 140 334 242 21 263 289 280 241 249 265 290 286 242 252 262 267 272 244 256 269 249
328 324 319 343 266 217 298 305 295 298 301 343 65 43 59 110 234 91 280 265 314 337 333 264 307 207 232 280 12 327 243 168 331 14 284 222 52 262 188 242 175 113 167 102 270 82 283 264 172 177 170 50 244 318 350 337 158 197 22 269 273 200 235 271 203 264 283 328 111 237 292 246 299 187 323 233 293 315 246 246 250 248 250 255 272 278 269 267
325 312 314 297 248 214 259 295 285 284 283 77 58 111 181 236 256 257 220 283 263 268 199 18 287 7 327 85 331 223 265 8 67 312 26 256 263 242 251 183 228 337 79 230 191 108 240 265 50 355 11 336 226 13 314 325 103 109 276 19 226 224 59 250 22 297 320 322 257 180 233 269 235 353 276 250 272 265 249 249 230 247 232 236 262 248 247 248
328 342 303 351 336 332 329 308 303 285 256 63 124 187 210 189 310 169 349 76 2 321 351 204 113 311 299 313 82 75 157 250 20 320 169 237 282 236 48 310 191 208 183 201 102 221 109 233 54 183 167 136 22 331 247 306 244 135 171 203 12 2 91 99 130 98 320 254 247 141 273 255 264 265 269 346 278 274 180 245 240 258 242 224 248 245 238 239
347 328 4 331 301 331 329 332 307 294 46 93 108 235 199 290 220 183 323 314 341 357 22 345 324 334 321 302 307 322 214 188 295 8 322 154 271 190 254 269 190 247 319 328 235 175 273 326 81 291 163 78 321 281 299 305 302 104 212 104 125 274 335 208 261 133 252 238 262 125 251 289 8 304 62 309 321 301 335 30 286 271 225 233 237 231 232 233
329 319 276 279 286 325 317 310 295 49 67 103 194 252 135 209 129 274 41 303 247 100 346 239 290 119 260 215 276 102 132 312 358 69 291 141 312 130 176 168 44 34 353 319 275 11 40 280 119 358 8 70 153 239 228 161 277 328 352 338 272 181 200 111 279 233 204 230 257 220 311 263 233 261 309 277 258 282 290 15 340 266 220 236 242 238 237 243
285 320 244 224 332 337 322 288 265 93 105 107 185 271 194 266 310 202 147 122 215 295 290 241 258 44 75 198 292 302 335 296 80 155 307 152 267 161 192 136 92 261 247 193 232 16 278 277 169 194 165 54 276 205 237 147 169 178 255 250 37 325 298 168 215 338 312 273 60 261 118 260 195 223 205 240 243 275 268 284 253 245 227 230 241 243 236 229
10 9 253 318 310 333 322 211 46 55 88 202 178 228 60 275 248 282 203 252 326 233 264 311 184 281 217 259 98 311 28 239 182 146 194 6 272 226 183 36 147 193 186 213 112 322 317 81 279 95 278 268 209 185 230 157 177 174 228 252 143 238 343 313 312 230 247 257 227 287 254 236 252 174 187 248 264 263 250 268 280 265 257 247 255 257 252 246
327 173 279 307 336 326 292 43 56 95 137 31 314 231 204 213 356 85 39 335 297 294 262 285 260 245 266 337 260 167 274 207 323 205 207 235 193 293 82 161 178 142 197 136 137 161 231 196 268 60 218 220 219 38 348 5 356 249 202 209 206 161 193 218 246 90 260 230 237 197 250 228 264 116 205 233 247 266 194 240 268 272 264 257 249 246 245 252
330 17 157 347 348 341 333 120 49 307 65 174 187 164 122 85 197 312 43 50 220 252 75 231 206 243 170 239 265 199 208 245 222 280 236 231 191 223 82 355 156 120 127 189 171 189 146 83 283 258 246 286 43 81 62 26 182 242 291 278 1 237 305 239 259 201 36 242 29 302 317 240 256 165 205 227 258 278 212 211 262 269 267 261 253 248 250 247
14 272 316 325 349 344 47 65 348 21 204 331 0 262 208 236 183 149 20 11 286 178 349 206 219 181 244 232 281 267 201 250 155 216 208 209 245 249 39 262 269 186 123 22 0 236 114 222 257 256 270 99 170 131 151 215 246 291 223 204 204 215 218 259 284 359 225 109 232 220 244 283 267 158 251 259 272 271 241 225 244 265 269 265 261 256 244 250
311 284 310 284 360 337 179 215 189 208 269 313 92 309 213 251 171 177 209 223 210 150 216 241 291 208 306 81 175 254 179 280 214 216 272 149 286 62 348 315 310 302 279 132 132 210 267 198 169 293 304 264 205 155 181 110 255 236 250 186 220 279 47 112 106 220 269 198 243 209 256 264 277 334 319 265 294 263 261 221 209 247 259 259 264 260 249 250
288 250 244 299 342 344 221 2 144 136 188 281 354 315 277 261 199 245 235 240 156 216 148 254 214 85 180 129 227 207 243 216 295 229 6 117 277 54 8 181 298 245 88 200 182 77 165 222 144 232 249 268 259 251 270 274 195 191 250 234 219 203 164 139 243 200 246 184 202 221 269 261 254 208 259 254 228 264 252 235 225 231 259 266 270 262 264 254
350 336 293 316 6 31 75 341 6 106 122 164 317 256 163 240 224 100 165 243 213 197 231 326 133 174 122 171 225 231 241 192 190 291 31 311 285 293 210 212 271 264 196 146 64 356 238 344 233 224 227 242 251 276 96 128 101 215 206 191 206 207 208 224 320 235 226 223 219 219 240 263 275 274 262 266 260 253 274 250 235 251 238 239 250 260 259 261
305 190 343 329 345 50 46 15 44 351 169 321 221 123 249 208 281 342 183 233 76 237 267 195 208 162 228 170 233 252 219 246 227 313 207 260 254 235 79 341 353 284 291 330 272 90 305 260 222 236 235 242 248 248 232 177 254 258 247 236 194 189 196 199 199 225 193 230 252 222 247 247 258 275 277 278 280 271 245 265 258 247 260 256 258 269 266 258
168 159 77 21 321 300 80 58 37 37 36 329 261 65 245 169 189 192 2 235 319 194 233 185 128 238 244 222 264 262 83 120 52 250 227 231 294 311 347 82 297 5 216 9 244 149 218 258 240 197 247 247 253 266 274 274 246 259 245 236 197 200 189 199 217 227 173 218 250 236 245 244 245 248 266 270 272 280 276 271 264 268 277 270 270 270 266 260
355 340 292 336 250 12 329 54 25 321 333 126 281 185 250 219 254 218 259 319 260 249 186 252 183 219 223 253 215 269 296 307 263 228 235 338 226 314 292 257 168 13 299 31 234 215 129 248 235 205 260 259 255 251 257 242 265 274 259 246 234 186 202 204 217 219 222 236 242 252 261 261 239 245 256 261 269 279 283 275 267 266 262 266 271 273 271 265
4 16 343 1 296 294 271 283 263 286 264 166 229 203 194 217 242 213 264 193 264 262 80 243 238 266 253 230 207 253 291 104 286 289 297 338 291 172 256 245 270 346 207 195 153 259 175 261 97 248 261 255 242 254 219 226 237 261 257 249 238 219 219 218 228 231 234 251 251 260 257 261 253 245 268 270 274 282 286 272 260 249 263 272 276 276 271 259
337 351 318 329 301 267 243 241 247 246 266 206 217 227 196 214 222 179 247 184 245 266 167 243 234 271 260 263 246 261 267 271 273 280 287 276 278 264 276 295 133 150 227 176 205 207 175 269 64 198 280 271 213 238 241 359 243 251 264 261 212 193 225 222 225 226 208 237 230 248 260 261 264 254 258 273 274 266 261 265 275 277 266 253 251 261 265 264
344 10 11 298 273 249 254 220 234 199 236 215 200 211 192 206 173 144 276 213 225 242 254 265 286 294 286 287 285 287 287 262 263 271 279 284 270 269 222 267 212 232 193 211 169 167 187 206 236 198 258 266 276 290 301 309 298 271 251 226 217 212 218 218 222 223 213 227 242 241 246 237 250 274 276 265 255 256 264 270 279 271 252 230 239 250 261 267